Weather in Serebryanyy Bor

Russia / Sakha (Yakutia) Republic     56°40′31″N   124°50′15″E
temp.,
°C
wind,
m/s
gust,
m/s
humid.,
%
clouds,
%
prec.,
mm/h
press.,
hPa
HPBL,
m
24 september, fri
fri2400:00+7sse51273100 0.2 10201029
03:00+6sse41186100 1.1 1020678
06:00+5sse41093100 2.4 1021783
09:00+6sse478777 2.4 1022579
12:00+9sse467837 0.1 1021665
15:00+9s1375100 0.2 1021635
18:00+3nnw2594100 0.4 1026337
21:00+3nnw2497100 0.9 1027351
25 september, sat
sat2500:00+3nw2497100 0.1 1027367
03:00+3nw129398 0.1 1028312
06:00+2nnw1293100 0.0 1028137
09:00+4nw0087100 0.0 1027300
12:00+6se017793 0.0 1026637
15:00+8nne1169100 0.0 1025722
18:00+5nne1183100 0.0 102615
21:00+3nne119147 0.0 102810
26 september, sun
sun2600:00+2se119382 0.0 102710
03:00+1se1193100 0.0 102610
06:00+1se1194100 0.0 102510
09:00+5se247890 0.0 1022246
12:00+10sse61168100 0.0 10171177
15:00+9se61273100 0.0 10141325
18:00+8sse61387100 0.9 10121272
21:00+8se51390100 2.6 10101036
27 september, mon
mon2700:00+8sse51292100 3.0 10081154
03:00+8se61391100 4.4 10041027
06:00+8se61492100 2.0 1001979
09:00+8se61391100 4.4 999907
12:00+9se399056 0.1 998588
15:00+11sse587778 1.1 9971069
18:00+8sse49794 0.5 998353
21:00+4sse399231 0.5 1001317
28 september, tue
tue2800:00+3sse389299 0.0 1002391
03:00+4s2697100 0.3 1002592
06:00+3nw1298100 1.0 1004434
09:00+2nne0195100 1.7 1006249
12:00+3n228893 0.4 1006308
15:00+3n218682 0.6 1005379
18:00+3n2388100 0.1 1005258
21:00+1nnw3796100 0.1 1005279